Location: Pointed Rock Observatory
(32.4532°N, 111.0636°W)
Time: 20:08:18
(UTC-07:00)

Envisat - Visible Passes

Search period start: 24 April 2018 00:00
Search period end: 04 May 2018 00:00
Orbit: 764 x 766 km, 98.2° (Epoch: 24 April)

Date Brightness Start Highest point End Pass type
(mag) Time Alt. Az. Time Alt. Az. Time Alt. Az.
24 Apr 3.7 20:12:37 10° S 20:17:34 55° W 20:22:33 10° NNW visible
25 Apr 3.1 19:35:55 10° SSE 19:40:53 60° ENE 19:45:53 10° N visible
25 Apr 5.8 21:18:28 10° WSW 21:20:13 12° W 21:21:58 10° WNW visible
26 Apr 4.8 20:38:51 10° SSW 20:43:13 29° W 20:47:37 10° NW visible
27 Apr 3.2 20:01:22 10° S 20:06:25 73° WSW 20:11:30 10° NNW visible
28 Apr 3.4 19:24:58 10° SE 19:29:47 46° ENE 19:34:37 10° N visible
28 Apr 5.6 21:05:59 10° SW 21:08:57 16° W 21:11:58 10° WNW visible
29 Apr 4.3 20:27:21 10° SSW 20:32:02 38° W 20:36:45 10° NNW visible
30 Apr 3.0 19:50:13 10° SSE 19:55:17 87° ENE 20:00:22 10° NNW visible
01 May 5.3 20:54:02 10° SW 20:57:44 20° W 21:01:28 10° NW visible
02 May 3.9 20:15:58 10° S 20:20:51 50° W 20:25:47 10° NNW visible
03 May 3.0 19:39:08 10° SSE 19:44:09 67° ENE 19:49:12 10° N visible
03 May 5.9 21:22:52 10° W 21:23:32 10° W 21:24:11 10° W visible
